Погода в Чутеево

Россия / Чувашская Республика     55°23′33″N   47°49′43″E
темп.,
°C
ветер,
м/с
пор.,
м/с
влажн.,
%
обл.,
%
осадки,
мм/ч
давл.,
гПа
погр.,
м
28 июня, вт
вт2800:00+13с49940 0.0 1015196
03:00+10ссв48940 0.0 1017189
06:00+11св46855 0.0 1018344
09:00+14с57630 0.0 10181224
12:00+16с685046 0.0 10182161
15:00+16с68497 0.0 10192092
18:00+15ссв47626 0.0 1019788
21:00+11ссз2272100 0.0 102028
29 июня, ср
ср2900:00+8ссв22795 0.0 102128
03:00+7ссз358115 0.0 102167
06:00+11ссз47716 0.0 1022239
09:00+15ссз57571 0.0 1020997
12:00+18ссз574693 0.0 10201852
15:00+19ссз564468 0.0 10181922
18:00+18сз36624 0.0 1017275
21:00+12сз33685 0.0 101734
30 июня, чт
чт3000:00+11зсз3671100 0.0 101679
03:00+9сз347683 0.0 101553
06:00+12сз41074100 0.0 1014324
09:00+16сз796027 0.0 1013804
12:00+19сз7104686 0.0 10122533
15:00+17с6962100 0.2 1012911
18:00+15ссв6115997 0.1 1013741
21:00+10ссв35759 0.1 101584
1 июля, пт
пт100:00+8с4107293 0.0 1016211
03:00+6с410885 0.0 1017185
06:00+9с5117534 0.0 1018476
09:00+14ссв7106026 0.0 10181296
12:00+15ссв5855100 0.0 10181828
15:00+17с3760100 0.0 10171286
18:00+17сз0166100 0.0 101793
21:00+12зсз33725 0.0 101724
2 июля, сб
сб200:00+11зсз34775 0.0 101743
03:00+10зсз46780 0.0 101789
06:00+13зсз35740 0.0 1016153
09:00+19зсз456099 0.0 1016497
12:00+21сз4558100 0.0 1015995
15:00+21сз2463100 0.0 1014557
18:00+22зюз3772100 0.2 1012448
21:00+15зюз599496 2.6 1012221